Location: Briis
(48.6240°N, 2.1211°E)
Time: 06:00:35
(UTC+00:00)

USA 276 - Pass Details

Date: 25 September 2020
Orbit: 381 x 398 km, 50.0° (Epoch: 15 October)

Event Time Altitude Azimuth Distance (km) Brightness Sun altitude
Exits shadow 04:04:11 54° 238° (WSW) 468 2.1 -16.9°
Maximum altitude 04:04:33 60° 202° (SSW) 440 2.1 -16.8°
Drops below altitude 10° 04:07:38 10° 121° (ESE) 1,396 5.5 -16.3°
Sets 04:09:42 0° 118° (ESE) 2,247 6.7 -16.0°
